TimePST,TemperatureF,Dew PointF,Humidity,Sea Level PressureIn,VisibilityMPH,Wind Direction,Wind SpeedMPH,Gust SpeedMPH,PrecipitationIn,Events,Conditions,WindDirDegrees,DateUTC
12:53 AM,54.0,48.9,83,29.87,10.0,NE,4.6,-,N/A,,Clear,40,2012-11-08 08:53:00
1:53 AM,53.1,48.0,83,29.87,10.0,Calm,Calm,-,N/A,,Clear,0,2012-11-08 09:53:00
2:53 AM,51.1,48.0,89,29.85,9.0,SE,3.5,-,N/A,,Clear,140,2012-11-08 10:53:00
3:39 AM,51.8,48.2,88,29.87,9.0,NNW,4.6,-,N/A,,Scattered Clouds,330,2012-11-08 11:39:00
3:53 AM,51.1,48.0,89,29.88,9.0,NW,3.5,-,N/A,,Partly Cloudy,320,2012-11-08 11:53:00
4:53 AM,52.0,44.1,74,29.89,10.0,NW,8.1,-,N/A,,Scattered Clouds,310,2012-11-08 12:53:00
5:22 AM,53.6,42.8,67,29.90,10.0,WNW,15.0,-,N/A,,Mostly Cloudy,290,2012-11-08 13:22:00
5:53 AM,54.0,42.1,64,29.92,10.0,WNW,13.8,-,N/A,,Overcast,300,2012-11-08 13:53:00
6:42 AM,55.4,39.2,54,29.94,10.0,WNW,17.3,-,N/A,,Overcast,290,2012-11-08 14:42:00
6:53 AM,55.0,39.9,57,29.95,10.0,West,19.6,26.5,N/A,,Overcast,280,2012-11-08 14:53:00
7:53 AM,55.9,35.1,45,29.98,10.0,West,16.1,24.2,N/A,,Mostly Cloudy,280,2012-11-08 15:53:00
9:53 AM,61.0,34.0,36,29.98,10.0,WNW,12.7,-,N/A,,Clear,300,2012-11-08 17:53:00
10:53 AM,62.1,35.1,37,29.97,10.0,NW,8.1,-,N/A,,Clear,310,2012-11-08 18:53:00
11:53 AM,62.1,36.0,38,29.94,10.0,WNW,10.4,-,N/A,,Partly Cloudy,290,2012-11-08 19:53:00
12:53 PM,64.0,36.0,35,29.91,10.0,NW,11.5,-,N/A,,Clear,320,2012-11-08 20:53:00
1:53 PM,64.0,36.0,35,29.88,10.0,Calm,Calm,-,N/A,,Partly Cloudy,0,2012-11-08 21:53:00
2:53 PM,63.0,35.1,35,29.87,10.0,SSW,5.8,-,N/A,,Overcast,200,2012-11-08 22:53:00
3:53 PM,57.9,42.1,56,29.88,10.0,NW,15.0,-,0.00,Rain,Light Rain,310,2012-11-08 23:53:00
4:53 PM,53.1,46.0,77,29.89,10.0,West,13.8,23.0,0.01,Rain,Light Rain,280,2012-11-09 00:53:00
5:53 PM,53.1,46.0,77,29.89,10.0,West,8.1,-,0.00,,Overcast,270,2012-11-09 01:53:00
6:53 PM,53.1,44.1,71,29.89,10.0,West,3.5,-,0.01,,Overcast,270,2012-11-09 02:53:00
7:53 PM,51.1,42.1,71,29.90,10.0,NW,5.8,-,N/A,,Overcast,320,2012-11-09 03:53:00
8:53 PM,51.1,42.1,71,29.91,10.0,NW,4.6,-,N/A,,Clear,310,2012-11-09 04:53:00
9:53 PM,50.0,41.0,71,29.92,10.0,WNW,6.9,-,N/A,,Clear,290,2012-11-09 05:53:00
10:53 PM,48.0,39.0,71,29.93,10.0,NNE,3.5,-,N/A,,Clear,20,2012-11-09 06:53:00
11:53 PM,44.1,41.0,89,29.94,10.0,SE,3.5,-,N/A,,Clear,130,2012-11-09 07:53:00